• In Sweden
  • List of Countries
  • For 7 days
  • Water Temperature
  • Satellite Maps
  • Weather Map
  • Weather Widgets
  • user-avatar
    Login

    Hourly Weather Skugorevo

    Today, 26 September, Wednesday

    Time Temperature Precipitation Wind Pressure Humidity
    00:00 +1°C° 0 mm 4 mps 740 mmHg 85%
    01:00 +2°C° 0 mm 3 mps 741 mmHg 85%
    02:00 +2°C° 0 mm 3 mps 742 mmHg 86%
    03:00 +1°C° 0 mm 3 mps 742 mmHg 87%
    04:00 +1°C° 0 mm 3 mps 743 mmHg 87%
    05:00 0°C° 0 mm 3 mps 743 mmHg 88%
    06:00 +1°C° 0 mm 3 mps 743 mmHg 84%
    07:00 +2°C° 0 mm 3 mps 744 mmHg 80%
    08:00 +3°C° 0 mm 3 mps 744 mmHg 76%
    09:00 +5°C° 0 mm 3 mps 744 mmHg 70%
    10:00 +6°C° 0 mm 4 mps 745 mmHg 65%
    11:00 +8°C° 0 mm 4 mps 745 mmHg 60%
    12:00 +10°C° 0 mm 4 mps 744 mmHg 59%
    13:00 +10°C° 0 mm 4 mps 744 mmHg 58%
    14:00 +10°C° 0 mm 5 mps 743 mmHg 56%
    15:00 +10°C° 0 mm 4 mps 743 mmHg 60%
    16:00 +8°C° 0 mm 4 mps 742 mmHg 64%
    17:00 +7°C° 0 mm 4 mps 742 mmHg 68%
    18:00 +7°C° 0 mm 5 mps 741 mmHg 67%
    19:00 +7°C° 0 mm 5 mps 741 mmHg 67%
    20:00 +5°C° 0 mm 6 mps 740 mmHg 66%
    21:00 +5°C° 0.4 mm 6 mps 739 mmHg 70%
    22:00 +5°C° 0.4 mm 7 mps 738 mmHg 74%
    23:00 +4°C° 0.4 mm 7 mps 737 mmHg 77%

    Tomorrow, 27 September, Thursday

    Time Temperature Precipitation Wind Pressure Humidity
    00:00 +4°C° 1.2 mm 8 mps 735 mmHg 80%
    01:00 +4°C° 1.2 mm 8 mps 734 mmHg 83%
    02:00 +2°C° 1.2 mm 9 mps 733 mmHg 86%
    03:00 +3°C° 0.6 mm 9 mps 732 mmHg 87%
    04:00 +4°C° 0.6 mm 8 mps 731 mmHg 88%
    05:00 +4°C° 0.6 mm 8 mps 731 mmHg 89%
    06:00 +5°C° 0.6 mm 8 mps 731 mmHg 89%
    07:00 +5°C° 0.6 mm 7 mps 731 mmHg 89%
    08:00 +6°C° 0.6 mm 7 mps 731 mmHg 89%
    09:00 +8°C° 0.1 mm 7 mps 731 mmHg 80%
    10:00 +9°C° 0.1 mm 7 mps 731 mmHg 71%
    11:00 +10°C° 0.1 mm 7 mps 732 mmHg 63%
    12:00 +10°C° 0 mm 7 mps 732 mmHg 60%
    13:00 +11°C° 0 mm 7 mps 732 mmHg 56%
    14:00 +11°C° 0 mm 7 mps 732 mmHg 53%
    15:00 +10°C° 0.1 mm 6 mps 733 mmHg 58%
    16:00 +9°C° 0.1 mm 5 mps 733 mmHg 63%
    17:00 +8°C° 0.1 mm 4 mps 733 mmHg 68%
    18:00 +8°C° 0 mm 4 mps 734 mmHg 70%
    19:00 +7°C° 0 mm 4 mps 734 mmHg 72%
    20:00 +6°C° 0 mm 4 mps 734 mmHg 74%
    21:00 +6°C° 0 mm 4 mps 734 mmHg 75%
    22:00 +6°C° 0 mm 4 mps 734 mmHg 76%
    23:00 +6°C° 0 mm 4 mps 734 mmHg 77%

    Day after tomorrow, 28 September, Friday

    Time Temperature Precipitation Wind Pressure Humidity
    00:00 +6°C° 0 mm 4 mps 733 mmHg 77%
    01:00 +6°C° 0 mm 5 mps 733 mmHg 78%
    02:00 +6°C° 0 mm 5 mps 732 mmHg 79%
    03:00 +7°C° 0.1 mm 6 mps 731 mmHg 80%
    04:00 +8°C° 0.1 mm 7 mps 730 mmHg 81%
    05:00 +9°C° 0.1 mm 8 mps 729 mmHg 82%
    06:00 +10°C° 0.1 mm 8 mps 728 mmHg 82%
    07:00 +10°C° 0.1 mm 9 mps 728 mmHg 82%
    08:00 +11°C° 0.1 mm 9 mps 727 mmHg 83%
    09:00 +11°C° 0.4 mm 9 mps 727 mmHg 83%
    10:00 +12°C° 0.4 mm 9 mps 727 mmHg 83%
    11:00 +12°C° 0.4 mm 9 mps 727 mmHg 83%
    12:00 +12°C° 0.5 mm 8 mps 728 mmHg 79%
    13:00 +11°C° 0.5 mm 8 mps 729 mmHg 75%
    14:00 +11°C° 0.5 mm 8 mps 730 mmHg 72%
    15:00 +9°C° 0 mm 6 mps 731 mmHg 74%
    16:00 +8°C° 0 mm 5 mps 732 mmHg 76%
    17:00 +7°C° 0 mm 3 mps 733 mmHg 78%
    18:00 +5°C° 0 mm 3 mps 733 mmHg 81%
    19:00 +4°C° 0 mm 3 mps 734 mmHg 85%
    20:00 +4°C° 0 mm 2 mps 735 mmHg 88%
    21:00 +4°C° 0 mm 2 mps 736 mmHg 89%
    22:00 +4°C° 0 mm 2 mps 736 mmHg 91%
    23:00 +4°C° 0 mm 2 mps 736 mmHg 92%

    29 September, Saturday

    Time Temperature Precipitation Wind Pressure Humidity
    00:00 +3°C° 0 mm 2 mps 737 mmHg 93%
    01:00 +3°C° 0 mm 2 mps 737 mmHg 93%
    02:00 +3°C° 0 mm 2 mps 738 mmHg 94%
    03:00 +3°C° 0 mm 2 mps 738 mmHg 95%
    04:00 +2°C° 0 mm 2 mps 739 mmHg 95%
    05:00 +3°C° 0 mm 1 mps 739 mmHg 96%
    06:00 +4°C° 0 mm 1 mps 739 mmHg 90%
    07:00 +5°C° 0 mm 1 mps 740 mmHg 84%
    08:00 +6°C° 0 mm 1 mps 740 mmHg 78%
    09:00 +7°C° 0 mm 1 mps 741 mmHg 70%
    10:00 +9°C° 0 mm 1 mps 741 mmHg 61%
    11:00 +10°C° 0 mm 1 mps 741 mmHg 53%
    12:00 +10°C° 0 mm 1 mps 741 mmHg 52%
    13:00 +10°C° 0 mm 1 mps 741 mmHg 51%
    14:00 +9°C° 0 mm 2 mps 741 mmHg 49%
    15:00 +9°C° 0 mm 1 mps 742 mmHg 55%
    16:00 +8°C° 0 mm 1 mps 742 mmHg 60%
    17:00 +7°C° 0 mm 1 mps 742 mmHg 65%
    18:00 +6°C° 0 mm 1 mps 742 mmHg 67%
    19:00 +5°C° 0 mm 1 mps 743 mmHg 69%
    20:00 +4°C° 0 mm 1 mps 743 mmHg 71%
    21:00 +4°C° 0 mm 1 mps 744 mmHg 73%
    22:00 +4°C° 0 mm 1 mps 744 mmHg 75%
    23:00 +3°C° 0 mm 1 mps 744 mmHg 77%

    30 September, Sunday

    Time Temperature Precipitation Wind Pressure Humidity
    00:00 +3°C° 0 mm 1 mps 744 mmHg 79%
    01:00 +2°C° 0 mm 1 mps 745 mmHg 80%
    02:00 +2°C° 0 mm 1 mps 745 mmHg 82%
    03:00 +1°C° 0 mm 0 mps 745 mmHg 83%
    04:00 0°C° 0 mm 0 mps 745 mmHg 84%
    05:00 0°C° 0 mm 0 mps 745 mmHg 85%
    06:00 +2°C° 0 mm 0 mps 745 mmHg 80%
    07:00 +4°C° 0 mm 1 mps 745 mmHg 75%
    08:00 +5°C° 0 mm 1 mps 745 mmHg 70%
    09:00 +6°C° 0 mm 2 mps 745 mmHg 65%
    10:00 +7°C° 0 mm 2 mps 745 mmHg 59%
    11:00 +9°C° 0 mm 3 mps 745 mmHg 54%
    12:00 +9°C° 0 mm 3 mps 745 mmHg 53%
    13:00 +10°C° 0 mm 4 mps 744 mmHg 52%
    14:00 +10°C° 0 mm 4 mps 744 mmHg 51%
    15:00 +9°C° 0 mm 3 mps 744 mmHg 58%
    16:00 +8°C° 0 mm 3 mps 744 mmHg 64%
    17:00 +7°C° 0 mm 2 mps 743 mmHg 70%
    18:00 +6°C° 0 mm 2 mps 743 mmHg 74%
    19:00 +5°C° 0 mm 2 mps 743 mmHg 78%
    20:00 +3°C° 0 mm 3 mps 743 mmHg 81%
    21:00 +3°C° 0 mm 3 mps 743 mmHg 83%
    22:00 +2°C° 0 mm 3 mps 743 mmHg 85%
    23:00 +2°C° 0 mm 3 mps 743 mmHg 86%

    1 October, Monday

    Time Temperature Precipitation Wind Pressure Humidity
    00:00 +2°C° 0 mm 3 mps 743 mmHg 87%
    01:00 +2°C° 0 mm 3 mps 743 mmHg 87%
    02:00 +2°C° 0 mm 3 mps 743 mmHg 87%
    03:00 +1°C° 0 mm 3 mps 742 mmHg 88%
    04:00 +1°C° 0 mm 3 mps 742 mmHg 88%
    05:00 +1°C° 0 mm 3 mps 742 mmHg 88%
    06:00 +2°C° 0 mm 3 mps 742 mmHg 83%
    07:00 +3°C° 0 mm 3 mps 742 mmHg 77%
    08:00 +4°C° 0 mm 4 mps 742 mmHg 72%
    09:00 +6°C° 0 mm 4 mps 742 mmHg 67%
    10:00 +7°C° 0 mm 4 mps 742 mmHg 61%
    11:00 +10°C° 0 mm 4 mps 742 mmHg 55%
    12:00 +11°C° 0 mm 4 mps 742 mmHg 54%
    13:00 +11°C° 0 mm 4 mps 741 mmHg 53%
    14:00 +12°C° 0 mm 4 mps 741 mmHg 52%
    15:00 +10°C° 0 mm 4 mps 741 mmHg 58%
    16:00 +9°C° 0 mm 3 mps 741 mmHg 64%
    17:00 +8°C° 0 mm 2 mps 740 mmHg 70%
    18:00 +7°C° 0 mm 2 mps 741 mmHg 73%
    19:00 +6°C° 0 mm 2 mps 741 mmHg 76%
    20:00 +5°C° 0 mm 2 mps 741 mmHg 79%
    21:00 +5°C° 0 mm 2 mps 741 mmHg 80%
    22:00 +4°C° 0 mm 2 mps 741 mmHg 82%
    23:00 +4°C° 0 mm 2 mps 741 mmHg 84%
    Show more